Regional Weather Roundup
Issued by NWS

Home | Current Version | Previous Version | Graphics & Text | Print | Product List | Glossary On
Versions: 1 2 3 4 5 6 7 8 9 10 11 12 13 14 15 16 17 18 19 20 21 22 23 24 25 26 27 28 29 30 31 32 33 34 35 36 37 38 39 40 41 42 43 44 45 46 47 48 49 50
000
ASUS43 KBIS 310302
RWRND

NORTH DAKOTA REGIONAL WEATHER ROUNDUP
NATIONAL WEATHER SERVICE BISMARCK ND
1000 PM CDT SAT JUL 30 2016

NOTE: "FAIR" INDICATES FEW OR NO CLOUDS BELOW 12,000 FEET WITH NO
SIGNIFICANT WEATHER AND/OR OBSTRUCTIONS TO VISIBILITY.


NDZ001>003-009>011-017-310400-
NORTHWEST NORTH DAKOTA

CITY           SKY/WX    TMP DP  RH WIND       PRES   REMARKS
WILLISTON      CLEAR     77  57  50 E7        29.76R
MINOT          CLEAR     74  64  71 E8        29.80R
MINOT AFB      CLEAR     72  62  71 E3        29.79R
$$

NDZ018>021-031>035-040>046-310400-
SOUTHWEST NORTH DAKOTA

CITY           SKY/WX    TMP DP  RH WIND       PRES   REMARKS
BISMARCK       CLEAR     75  64  68 SE15      29.80R
DICKINSON      CLEAR     72  59  63 E8        29.78R
GARRISON         N/A     75  66  73 E5        29.79S
HETTINGER ARPT CLEAR     78  58  49 E12       29.80R
$$

NDZ004>008-012>016-024-026-027-054-310400-
NORTHEAST NORTH DAKOTA

CITY           SKY/WX    TMP DP  RH WIND       PRES   REMARKS
GRAND FORKS    PTCLDY    73  60  63 S12       29.88R
GRND FRKS AFB  CLEAR     71  62  72 S14       29.88S
DEVILS LAKE    CLEAR     73  63  70 SE12      29.87R
$$

NDZ022-023-025-028>030-036>039-047>053-310400-
SOUTHEAST NORTH DAKOTA

CITY           SKY/WX    TMP DP  RH WIND       PRES   REMARKS
FARGO          CLEAR     73  58  59 S12       29.91R
JAMESTOWN      CLEAR     71  61  70 SE12      29.87R
$$





USA.gov is the U.S. government's official web portal to all federal, state and local government web resources and services.